Probability
0 0 1 1 2 1 1 2 3 3 3 3 3 2 1 0 1 2 3 3 3 3 3 2 1 0 0 0 0 1 2 2 3 2 1 1 1 0 0 0 0 0 0
0 0 1 1 2 2 1 2 3 3 3 3 3 3 1 0 0 1 2 3 3 3 3 2 1 0 0 0 0 0 1 1 2 2 1 1 0 0 0 0 0 0 0
0 0 1 2 2 3 3 3 3 3 3 3 3 3 2 1 0 0 1 2 3 3 3 3 1 0 0 0 0 0 0 0 1 2 1 0 0 0 0 0 0 0 0
0 0 1 2 3 4 5 4 4 4 4 4 3 3 2 1 0 0 0 1 2 3 3 3 2 1 1 0 0 0 0 0 0 1 1 0 0 0 0 0 0 0 0
0 0 1 2 3 4 5 5 4 4 4 4 4 3 2 1 1 0 0 1 2 2 3 3 3 3 2 1 0 0 0 0 0 0 0 0 0 0 0 0 0 0 0
0 0 1 2 3 3 2 3 4 4 4 4 4 4 4 3 2 1 1 2 2 2 2 3 3 3 2 1 0 0 0 0 0 0 0 0 0 0 0 0 0 0 0
0 0 0 1 2 2 1 1 2 3 3 3 3 4 4 3 2 2 2 3 2 1 1 1 3 3 2 1 0 0 0 0 0 0 0 0 0 0 0 0 0 0 0
0 0 0 0 1 1 0 0 1 2 2 2 2 2 2 2 2 2 3 3 2 1 0 1 2 2 1 0 0 0 0 0 0 0 0 0 0 0 0 0 1 1 0
0 0 0 0 0 0 0 0 1 1 1 1 1 1 1 1 2 2 2 3 3 2 1 2 2 1 0 0 0 0 0 0 0 0 0 0 0 0 0 0 1 1 1
1 0 0 0 0 0 0 1 2 1 0 0 0 0 0 0 1 1 1 2 3 3 3 3 2 1 0 0 0 0 0 0 0 0 0 0 0 0 0 0 1 1 0
1 0 0 1 0 0 0 1 2 1 0 0 0 0 0 0 0 0 0 1 2 3 3 3 2 1 0 0 0 0 0 0 0 0 0 0 0 0 0 0 0 0 0
1 0 1 1 0 0 0 1 1 0 0 0 0 0 0 0 0 0 0 0 1 2 3 2 1 0 0 0 0 0 0 0 0 0 0 0 0 0 0 0 1 1 0
0 1 1 1 0 0 0 0 0 0 0 0 0 0 0 0 0 0 0 0 0 1 2 1 0 0 0 0 0 0 0 0 0 0 0 0 0 0 0 1 2 2 1
1 1 2 2 1 0 0 0 0 0 0 0 0 0 0 0 0 0 0 0 0 1 1 0 0 0 0 0 0 0 0 0 0 0 0 0 0 0 0 1 3 3 2
2 2 2 3 2 1 0 0 0 0 0 0 0 0 0 0 0 0 0 0 0 0 0 0 0 0 0 0 0 0 0 0 0 0 0 0 0 0 0 1 3 4 4
3 2 2 2 2 1 1 0 0 0 0 0 0 0 0 0 0 0 0 0 0 0 0 0 0 0 0 0 0 0 0 0 0 0 0 0 0 0 1 1 2 4 6
5 4 2 2 3 3 2 1 0 0 0 0 0 0 0 0 0 0 0 0 0 0 0 0 0 0 0 0 0 0 0 0 0 0 0 0 0 0 1 1 1 3 4
6 5 3 3 3 3 3 1 1 0 0 0 0 0 0 0 0 0 0 0 0 0 0 0 0 0 0 0 0 0 0 0 0 0 0 0 0 0 1 1 1 1 1
5 5 4 3 3 3 3 3 2 1 0 0 0 0 0 0 0 0 0 0 0 0 0 0 0 0 0 0 0 0 0 0 0 0 0 0 0 0 1 1 1 0 0
4 4 4 4 3 3 3 3 3 2 1 0 0 0 0 0 0 0 0 0 0 0 0 0 0 0 0 0 0 0 0 0 0 0 0 0 0 0 0 0 0 0 0
2 3 5 5 4 3 3 3 3 3 1 1 0 0 0 0 0 0 0 0 0 0 0 0 0 0 0 0 0 0 0 0 0 0 0 0 0 0 0 0 0 0 0
0 2 5 6 5 4 3 3 3 2 2 2 1 0 0 0 0 1 0 0 0 0 0 0 0 0 0 0 0 0 0 0 0 0 0 0 0 0 0 0 0 0 0
0 1 4 6 6 5 4 3 3 2 1 2 1 0 0 0 0 0 0 0 0 0 0 0 0 0 0 0 0 0 0 0 0 0 0 0 0 0 0 0 0 0 0
0 1 3 5 6 6 4 3 3 2 1 1 1 1 0 0 0 0 0 0 0 0 0 0 0 0 0 0 0 0 0 0 0 0 0 0 0 0 0 0 0 0 0
0 1 2 4 6 6 5 4 2 1 0 0 0 1 0 0 0 0 0 0 0 0 0 0 0 0 0 0 0 0 0 0 0 0 0 0 0 0 0 0 0 0 0
0 0 1 4 6 6 6 5 2 0 0 0 0 1 0 0 0 0 0 0 0 0 0 0 0 0 0 0 0 0 0 0 0 0 0 0 0 0 0 0 0 0 0
Wind_Speed
2 2 1 2 5 6 7 8 8 9 9 9 10 10 10 10 10 10 10 10 10 10 11 11 11 11 11 12 12 12 12 12 13 12 12 11 12 13 13 13 12 8 14
2 1 1 4 5 6 7 7 8 9 9 8 9 9 9 9 10 10 10 10 10 10 11 11 11 11 11 12 12 12 12 12 12 12 10 9 10 12 13 12 12 9 14
3 1 1 5 6 7 8 8 8 8 9 9 9 9 9 9 9 9 10 10 10 10 10 11 11 11 11 12 12 11 11 11 11 11 9 5 6 11 12 12 12 13 13
3 2 2 6 7 7 8 8 8 8 8 9 8 9 9 9 9 9 10 10 10 10 10 10 11 11 11 11 11 11 10 10 10 10 5 4 4 10 11 12 12 12 13
3 2 2 6 7 8 8 9 8 8 8 9 9 9 8 8 8 9 9 10 10 10 10 10 10 10 10 10 10 10 10 10 10 8 5 4 3 9 11 11 11 12 12
3 3 2 7 7 8 8 8 8 8 8 8 9 9 9 8 8 9 8 9 9 9 9 9 9 9 9 10 10 10 10 9 7 5 4 4 3 8 10 10 11 11 11
3 3 2 6 7 7 7 8 8 8 8 8 8 9 9 8 8 8 8 8 8 8 8 8 8 8 9 9 9 9 10 9 5 4 4 3 4 8 8 9 10 10 10
3 3 3 5 6 7 7 8 8 8 8 8 8 8 9 9 8 7 7 7 8 8 8 8 8 8 8 8 8 8 8 7 5 4 3 2 5 7 8 8 9 9 10
4 4 4 3 4 6 7 8 8 8 9 8 8 9 8 8 8 7 7 7 7 7 7 7 8 8 8 8 8 8 7 7 4 2 3 2 6 7 7 7 8 8 9
4 4 4 4 4 4 4 7 9 9 9 9 9 9 9 8 8 8 7 7 7 7 7 7 7 7 8 8 8 7 7 6 4 2 1 2 6 7 7 6 7 7 8
3 3 3 4 4 4 4 6 7 8 8 8 7 9 8 4 4 4 6 7 7 7 7 7 7 8 8 8 8 7 6 3 3 2 1 3 5 5 6 5 6 6 7
2 2 2 3 3 3 3 3 3 4 4 4 4 4 3 3 3 4 7 7 8 7 7 7 8 8 6 4 5 6 3 3 2 2 1 2 3 4 4 5 5 5 7
2 2 2 2 3 3 2 2 2 2 2 3 4 3 3 3 3 3 2 3 4 5 4 4 5 3 3 3 3 3 3 2 2 2 2 2 1 2 3 4 4 5 6
3 2 2 2 2 3 2 2 2 2 2 2 2 3 2 2 2 2 2 2 2 2 2 2 2 3 3 3 3 3 3 2 2 2 2 3 1 1 2 3 4 4 5
2 2 1 2 2 2 3 2 2 2 2 1 1 2 2 2 2 2 1 1 2 1 2 2 2 2 2 3 3 3 3 3 3 2 2 4 3 1 2 2 3 4 5
2 1 1 2 2 2 2 2 2 2 1 1 1 1 2 1 1 1 1 1 1 1 1 1 2 2 1 2 2 3 2 2 2 3 2 3 4 2 1 2 3 3 4
1 1 1 2 2 2 3 2 2 1 1 1 1 1 1 1 1 1 1 1 1 1 1 1 2 2 2 2 2 2 2 2 2 3 2 2 2 4 2 1 2 2 3
1 1 0 1 2 2 2 2 1 1 1 1 1 1 1 1 1 1 1 1 1 1 1 1 1 1 1 1 1 1 2 2 2 2 2 2 2 2 3 3 2 1 1
1 1 1 1 2 2 2 1 2 1 1 1 1 1 1 1 1 1 1 1 1 1 0 1 1 1 1 1 1 1 1 1 1 2 2 1 1 2 2 3 3 3 1
2 1 1 1 1 1 2 1 1 1 1 1 0 0 1 0 1 1 1 1 1 1 1 1 1 1 1 1 1 2 1 1 1 1 1 1 1 1 2 2 2 2 2
3 2 1 1 1 1 1 1 1 0 0 0 0 0 1 1 1 1 1 1 0 0 0 1 1 1 1 0 1 1 2 1 0 0 0 0 1 1 1 1 1 1 1
1 1 2 1 1 1 1 1 1 1 1 1 0 0 1 1 0 0 1 1 0 0 1 1 1 0 0 0 1 1 1 2 1 1 0 0 0 0 1 1 1 1 1
2 2 1 2 1 1 0 0 1 1 1 0 1 1 1 1 0 1 1 1 1 1 2 1 1 1 1 1 0 1 2 2 1 1 1 0 0 0 0 0 1 1 1
3 3 2 2 1 0 1 1 1 1 1 2 1 1 2 1 1 1 1 1 2 2 2 2 1 1 2 1 1 1 1 1 1 1 2 1 0 1 1 1 1 1 1
4 4 2 2 1 1 0 1 1 1 1 1 1 1 1 1 1 1 1 1 2 2 3 3 2 2 2 2 2 1 1 0 1 2 2 1 1 1 1 1 1 1 1
4 4 4 3 2 1 1 1 1 1 1 1 1 1 1 1 1 2 2 2 2 2 3 3 3 3 3 2 2 2 2 2 2 2 2 2 2 2 2 1 1 2 1
Wind_Direction
246 269 292 88 94 95 98 93 90 88 87 85 84 82 80 78 74 74 75 73 71 72 73 75 75 72 72 75 75 74 76 77 80 79 80 82 87 90 90 86 84 81 87
179 220 151 102 98 96 101 100 94 88 86 87 87 86 83 79 75 71 70 70 69 69 70 71 71 72 72 74 76 77 78 79 78 76 75 76 85 92 93 90 88 87 89
128 140 134 103 99 101 104 100 96 91 85 84 85 86 84 82 80 76 71 69 68 67 67 69 69 69 71 73 75 77 78 79 77 75 72 67 85 92 94 93 91 91 91
115 94 90 98 97 101 102 100 95 91 88 83 81 80 80 80 78 75 70 68 67 66 65 66 67 68 69 71 73 75 77 78 77 73 62 61 79 95 96 96 96 95 93
91 71 101 99 99 98 97 95 92 86 81 81 79 76 75 75 74 73 71 69 67 65 65 64 65 66 65 68 71 73 75 79 74 65 56 56 69 99 100 99 97 95 93
88 64 100 100 100 97 94 94 90 85 81 79 78 75 73 72 69 67 68 69 68 66 66 64 63 65 67 65 67 70 72 76 68 59 56 52 64 97 101 101 98 97 95
90 60 75 102 98 96 92 86 85 83 80 78 75 72 68 67 67 65 64 67 67 68 66 64 62 64 68 67 67 70 70 66 67 63 58 58 76 95 100 101 101 101 100
90 65 62 92 91 89 85 81 78 77 76 73 71 70 67 62 61 61 62 64 65 65 64 66 64 62 65 64 64 69 67 56 63 68 62 68 89 96 99 101 102 106 105
67 60 49 58 72 79 76 71 69 71 70 67 65 63 61 60 55 55 57 58 61 62 61 65 67 64 62 60 62 62 63 54 48 55 63 73 96 99 98 100 103 108 111
62 57 54 53 53 59 67 67 65 62 61 60 57 55 53 55 53 49 47 51 53 56 57 60 66 63 60 58 57 56 56 51 41 37 41 86 101 106 105 104 106 110 114
64 51 57 63 59 57 66 68 64 60 55 54 50 50 48 41 40 42 39 45 48 50 54 56 60 59 56 54 52 50 47 38 30 22 25 85 102 112 117 113 112 112 116
114 68 60 73 71 65 66 67 61 61 54 51 53 46 47 43 35 38 38 44 45 45 48 50 51 51 47 41 42 42 33 27 27 11 18 81 106 111 121 123 120 121 125
151 105 71 78 78 78 77 76 66 63 58 49 51 47 49 48 40 34 34 33 34 37 40 41 42 40 40 40 36 29 27 25 19 0 0 38 109 130 126 133 132 129 132
143 133 98 80 82 83 84 83 81 77 69 56 45 46 59 59 49 35 33 29 37 36 39 39 48 47 46 42 42 37 28 17 6 355 351 11 30 169 160 155 147 144 144
156 153 127 102 98 100 97 94 83 81 77 71 58 41 55 70 61 43 28 28 33 40 51 48 53 51 48 40 38 38 29 15 359 355 345 358 353 289 196 183 175 171 165
178 172 140 120 109 105 106 109 106 94 88 82 64 45 50 63 72 56 36 26 27 31 41 59 61 60 44 40 35 28 19 5 358 353 348 345 351 336 254 213 204 189 180
179 154 157 142 114 110 112 104 104 102 101 88 59 36 41 45 74 70 56 32 8 20 60 71 62 67 61 44 31 14 8 4 355 346 343 342 343 345 340 287 237 200 182
89 122 171 135 119 111 103 111 113 104 98 88 71 46 34 42 72 80 66 27 353 0 81 106 92 78 54 41 26 360 352 346 346 339 344 348 348 343 348 1 346 293 203
36 122 115 105 127 124 103 109 114 108 100 96 81 64 35 52 72 89 84 21 11 29 36 107 83 102 94 44 6 356 353 337 325 335 342 341 347 346 343 350 359 352 322
22 45 102 97 98 113 107 89 84 82 75 78 86 42 41 53 72 84 88 43 26 57 30 49 98 80 121 112 9 354 336 313 310 330 311 324 359 8 4 1 357 350 355
31 32 52 109 96 108 117 130 142 182 239 193 164 23 38 39 83 118 107 96 58 99 71 46 64 100 64 83 53 3 340 327 316 302 304 326 357 353 8 13 1 355 346
20 4 12 342 149 154 190 191 196 200 227 236 358 10 23 24 1 167 151 171 191 123 102 87 73 113 266 74 114 101 332 332 344 345 324 236 322 3 3 8 6 7 6
349 333 330 329 284 196 67 74 63 64 45 39 343 308 319 325 338 314 224 187 192 181 188 199 195 172 216 264 203 159 172 228 307 311 283 255 326 356 315 344 0 335 344
337 332 328 324 322 282 128 137 161 180 219 235 241 264 299 306 304 316 287 225 205 199 194 211 218 228 193 228 270 244 201 176 180 289 297 280 293 290 280 308 306 287 288
347 350 335 341 337 338 192 168 201 233 233 255 266 275 286 295 292 302 281 262 231 222 209 208 219 223 213 216 220 229 227 240 207 196 253 275 301 277 268 261 267 257 238
358 359 356 345 334 338 319 222 213 242 255 254 269 263 275 287 279 285 273 260 253 243 227 220 216 217 222 227 227 227 217 210 202 198 224 256 268 268 275 246 233 236 224